Theta_e
290 288 286 286 286 288 287 283 284 283 285 284 283 282 281 281 283 284 283 284 285 286 286 286 286 286 288 288 286 286 285 284 283 283 283 283 283 282 282 282 282 282 282 284 283 283 283 283 282 282 282 282 282 282 282 282 283 283 283 283 282 283 283 283 282 282 282 280 280 280 280 279 280 281 282 281 281 281 281 282 282 282 282 282 282 282
289 286 285 287 289 288 288 283 283 283 284 285 283 281 282 281 281 286 285 286 284 285 282 282 282 285 287 288 288 286 284 283 284 283 283 283 283 283 282 281 281 282 282 283 282 282 282 281 282 282 281 285 281 282 281 281 282 282 282 282 282 283 282 282 282 282 281 280 280 279 279 279 279 279 279 279 280 281 282 281 281 281 281 281 281 281
284 285 289 288 288 285 282 283 284 285 284 282 282 281 281 282 282 285 284 283 284 284 284 285 283 285 287 288 288 285 285 286 286 285 285 284 283 283 282 282 281 281 282 282 283 282 281 281 281 280 281 280 280 280 280 281 281 282 282 282 282 282 282 282 283 282 280 280 281 280 279 279 279 280 280 280 281 281 280 280 280 281 280 280 280 280
288 282 287 287 284 285 285 283 284 284 284 282 281 282 282 283 282 281 283 282 284 283 283 283 283 284 285 288 288 286 286 286 286 286 286 285 284 283 283 282 282 281 281 281 282 281 281 280 280 279 279 280 280 281 280 281 281 282 282 281 281 281 281 281 282 283 281 281 281 280 280 280 279 279 281 280 280 279 279 279 280 280 280 280 280 280
288 289 286 283 283 286 285 284 284 284 283 281 283 281 282 282 283 282 282 281 282 283 281 283 283 281 284 286 288 285 286 285 286 285 284 284 284 283 283 283 283 282 282 282 281 281 280 279 279 280 281 279 279 280 280 281 281 283 281 281 281 281 281 281 282 281 280 281 279 279 279 279 279 279 278 278 278 278 279 279 278 279 279 279 279 279
286 285 284 285 285 285 285 284 283 284 281 279 281 285 286 284 283 282 281 282 279 279 279 281 278 275 277 282 285 282 280 283 284 283 283 284 283 281 281 282 282 283 282 282 282 281 281 280 280 279 280 279 279 280 281 280 281 281 281 281 280 281 281 280 280 280 281 279 278 277 276 275 276 275 276 275 275 276 276 277 278 278 279 279 279 279
287 285 285 285 284 284 285 282 281 284 282 282 285 282 284 283 283 281 280 282 276 275 281 280 277 277 279 282 286 282 280 282 281 281 284 284 283 282 282 282 282 282 281 280 281 281 280 280 279 279 279 279 279 280 280 280 281 280 281 281 280 280 280 281 280 279 281 278 277 277 276 276 275 275 276 276 277 277 277 278 277 278 278 278 278 278
284 285 283 283 284 283 283 282 282 285 283 281 282 280 282 283 283 281 282 281 279 279 281 280 281 277 278 282 287 285 282 283 282 281 282 283 283 282 282 282 282 282 282 281 280 280 280 280 280 280 280 279 279 280 280 280 280 280 280 279 280 280 281 280 279 279 279 278 277 277 276 277 276 275 275 276 276 277 278 277 277 277 277 278 278 278
285 283 284 284 284 282 283 282 283 285 285 281 282 282 282 282 281 280 281 279 278 276 277 279 279 276 274 277 277 279 280 282 283 283 282 282 283 283 283 282 282 282 282 281 280 280 280 280 280 279 279 279 279 279 280 280 280 280 279 280 279 279 279 279 278 280 278 279 278 276 276 275 276 276 277 277 277 276 276 275 276 276 276 277 277 277
286 286 284 286 283 283 283 280 283 286 285 284 282 281 280 280 280 280 280 279 275 275 276 280 279 274 280 278 279 276 278 280 282 284 284 283 283 283 282 281 281 281 280 280 281 281 280 280 280 279 279 278 279 279 281 280 280 279 279 279 279 278 278 278 277 277 277 277 278 276 275 275 275 275 275 275 275 275 275 274 275 275 275 276 276 276
286 289 287 286 285 285 282 281 282 285 284 282 281 282 279 278 277 276 276 274 270 268 278 281 279 280 277 279 281 279 281 282 284 283 284 283 282 282 282 281 281 281 280 280 280 280 280 279 280 279 279 279 279 279 279 279 279 278 278 278 277 278 277 278 277 277 276 276 276 276 275 275 274 274 274 274 274 274 274 274 274 274 275 275 275 275
284 285 286 283 285 283 283 283 282 281 281 282 281 279 282 281 275 270 266 270 269 271 273 276 278 279 274 277 279 283 282 280 285 285 284 283 282 282 281 281 281 281 280 280 279 279 279 278 278 278 278 278 278 279 278 278 278 278 278 277 277 277 277 276 277 276 276 276 275 275 275 275 274 274 274 273 273 273 273 273 273 274 274 274 274 274
283 285 282 285 287 286 282 282 283 280 280 282 279 277 276 273 271 272 267 269 268 274 274 273 277 276 276 283 283 283 283 284 282 285 286 284 283 282 281 281 281 281 279 279 279 279 279 279 279 278 278 278 277 278 278 278 277 277 277 277 276 276 276 276 276 276 275 275 275 275 275 274 275 275 274 273 273 273 273 273 273 273 273 273 273 273
283 281 283 285 286 286 286 283 279 281 281 280 282 276 272 270 266 267 269 265 267 273 275 275 277 275 281 282 287 287 290 290 286 283 283 283 283 282 282 281 281 280 280 280 280 279 279 279 279 279 279 278 277 277 278 277 278 277 277 276 276 276 276 276 275 275 275 274 275 275 274 274 274 274 274 273 273 273 273 273 273 273 272 272 272 273
275 278 281 284 283 285 287 288 285 279 279 281 280 282 280 272 270 271 268 272 277 278 273 274 271 272 273 280 280 288 287 277 276 280 281 280 282 282 282 281 280 279 279 279 279 279 279 279 279 279 278 278 278 278 277 276 276 276 276 276 276 275 275 275 274 274 274 274 274 274 274 274 274 274 273 273 274 273 273 273 272 272 273 272 273 273
281 281 281 283 282 284 285 283 282 282 282 279 278 279 276 279 279 277 273 269 272 273 274 268 275 275 281 278 278 276 275 277 277 278 279 280 279 280 279 279 279 279 279 279 279 279 279 279 279 278 278 278 277 277 276 276 276 276 276 276 275 275 275 274 275 274 274 274 274 274 273 273 274 275 274 274 273 273 273 272 272 272 272 273 273 273
280 277 281 282 282 284 282 280 284 284 281 280 280 277 279 280 283 277 270 270 268 267 274 270 276 280 280 286 282 280 276 278 277 276 276 277 278 279 279 279 279 279 279 279 279 279 278 278 278 278 278 277 277 277 277 276 276 276 275 275 275 274 274 274 274 273 273 273 273 273 273 273 272 272 272 272 272 272 272 272 272 272 272 273 273 273
282 281 282 281 283 281 279 281 280 278 283 281 275 280 280 280 279 275 272 268 268 268 274 271 277 280 277 281 277 276 278 278 277 276 275 276 277 278 279 279 279 279 279 279 278 279 279 278 278 278 278 277 277 277 276 276 276 275 275 275 274 274 274 274 273 273 273 273 273 272 272 272 272 272 272 272 271 271 271 271 272 272 272 272 273 273
285 281 281 278 279 281 280 283 283 282 281 279 279 281 281 275 274 273 269 270 266 268 270 276 277 281 282 284 282 278 276 279 279 276 275 276 276 277 278 278 278 278 278 278 278 278 278 278 278 278 278 277 277 277 276 276 276 275 275 275 274 274 273 273 273 273 273 273 273 273 272 272 272 272 272 271 272 271 271 271 271 271 272 272 272 273
286 282 280 279 279 280 280 282 279 279 281 281 281 280 281 279 273 269 275 271 273 273 273 276 279 279 284 282 284 287 281 282 281 275 275 277 278 278 278 278 278 278 278 278 278 278 278 278 278 278 277 277 276 275 275 275 275 274 274 274 273 274 273 272 272 272 272 272 272 272 272 271 272 271 271 271 270 270 270 271 271 271 271 272 272 272
284 281 276 278 278 280 278 280 281 281 279 278 278 275 275 275 277 276 275 273 273 272 274 275 275 281 286 287 287 286 283 282 281 278 277 278 278 278 278 279 278 278 278 278 278 278 278 278 277 277 276 276 275 276 276 275 274 274 274 273 273 272 272 272 272 271 271 271 271 271 270 270 270 270 270 270 270 270 270 270 271 271 271 272 272 272
282 280 281 278 278 278 280 282 284 284 286 282 281 280 281 277 273 272 274 275 274 277 274 275 276 283 288 285 287 286 285 283 281 279 278 278 278 278 278 279 279 279 278 278 278 278 278 277 277 276 276 275 275 274 274 274 274 273 273 272 272 272 272 271 271 271 271 271 271 270 270 270 270 270 269 269 269 269 270 270 270 271 271 271 272 272
286 279 279 276 279 281 280 281 277 279 281 281 281 281 282 282 279 274 274 275 270 276 278 275 275 280 285 284 283 283 283 282 281 279 279 279 278 278 278 279 279 279 278 278 278 278 278 278 277 276 276 275 275 275 274 274 273 273 272 272 272 271 271 271 271 271 271 270 270 269 269 269 269 269 269 268 268 269 269 270 270 271 271 271 270 271
290 280 275 282 278 278 278 278 279 278 281 281 280 278 279 280 281 281 282 278 273 273 274 275 275 281 282 279 280 280 279 279 278 279 280 279 278 278 278 278 278 278 278 278 278 278 278 277 276 276 275 275 274 274 274 273 273 272 272 271 271 271 271 270 270 270 270 269 269 269 269 268 268 268 268 268 268 268 269 269 270 270 270 270 271 270
281 281 280 276 273 276 276 278 280 279 277 277 279 281 281 283 282 279 274 276 274 279 276 278 274 280 284 276 277 277 278 278 277 278 279 278 278 278 277 278 278 278 277 277 277 277 276 275 275 275 275 275 274 274 273 273 272 272 271 271 271 270 270 270 270 269 269 269 268 268 268 267 267 267 267 267 268 268 269 269 269 270 269 269 269 269
285 281 281 274 275 273 272 270 270 274 277 278 275 277 280 281 281 278 277 276 275 279 278 278 278 285 289 278 278 277 276 276 276 277 277 278 278 277 277 277 277 277 278 277 277 276 276 276 276 275 274 274 274 273 273 272 272 271 271 270 270 270 269 269 269 269 268 268 267 267 266 267 267 267 267 267 267 268 268 269 269 269 269 269 268 268
278 279 283 284 281 279 281 282 279 279 276 275 276 278 280 280 282 282 279 276 276 279 277 281 282 283 286 287 284 281 277 277 277 277 277 277 277 277 277 277 278 278 278 277 277 276 276 275 275 275 274 273 273 272 272 271 271 270 270 270 270 269 269 269 268 268 267 267 266 266 266 266 266 266 266 266 267 268 268 268 268 268 267 267 267 267
274 279 283 283 285 285 286 286 282 281 280 279 278 277 279 279 279 279 278 277 282 276 276 283 284 282 283 286 287 288 286 278 277 278 277 277 277 277 277 278 280 277 277 277 276 275 275 275 274 274 273 273 272 272 271 271 270 270 269 269 269 269 268 268 267 267 266 266 265 265 265 266 266 266 266 266 267 268 267 267 267 266 266 266 266 266
282 282 286 283 282 285 286 286 285 280 282 284 283 283 278 278 277 276 278 282 283 279 278 284 285 283 285 287 289 290 291 287 281 279 279 279 278 277 277 276 277 276 276 276 276 275 275 274 274 273 273 272 272 271 270 270 269 269 269 268 268 268 267 267 266 265 265 265 265 265 265 265 265 266 266 266 266 266 265 265 265 265 265 265 265 265
281 284 286 284 283 284 284 284 284 283 283 283 284 284 285 278 278 279 280 282 282 282 284 285 285 284 287 288 290 291 292 289 286 282 279 277 276 277 277 276 276 276 276 276 275 275 275 274 273 273 272 271 271 270 269 269 268 268 268 267 267 267 267 266 265 264 264 264 264 264 265 265 265 265 266 265 265 264 264 264 264 264 264 264 264 265
285 284 289 281 281 283 284 284 281 282 282 282 284 285 285 283 280 281 281 281 282 282 283 283 283 283 288 291 290 291 291 286 281 278 278 278 277 277 276 276 277 277 276 276 275 275 274 273 273 272 271 271 270 269 269 268 268 267 267 267 266 266 265 265 264 264 264 263 264 264 264 264 264 265 264 264 263 263 263 263 263 263 263 263 264 264
284 280 278 277 279 281 284 281 280 280 281 281 282 283 284 283 281 283 281 283 281 280 282 282 280 281 287 290 290 288 287 286 284 281 278 277 277 277 277 276 277 276 276 275 275 274 274 273 272 271 271 270 270 269 268 267 267 267 266 266 265 265 264 264 263 263 262 263 263 263 263 264 263 263 262 262 261 262 262 262 262 262 262 263 263 264
282 280 281 277 278 279 282 277 278 278 279 278 280 283 284 284 285 285 286 286 285 285 282 280 281 287 289 290 288 287 283 283 283 283 279 277 277 277 277 277 277 277 276 276 275 274 273 273 272 271 271 270 269 268 268 267 266 266 265 264 264 264 263 262 262 262 262 262 262 262 263 262 261 261 260 260 261 261 261 261 261 262 262 262 263 264
281 282 282 283 278 281 277 277 278 277 272 276 287 287 286 284 284 282 283 285 287 287 285 288 288 290 290 289 288 287 286 283 283 283 282 280 277 277 277 277 277 277 276 275 275 274 274 273 272 271 270 269 269 268 268 267 266 265 264 264 263 262 262 262 261 261 261 261 261 262 262 261 260 259 259 260 260 260 260 261 261 262 263 263 264 264
281 282 282 283 278 279 276 278 274 272 275 286 282 282 286 287 286 285 285 286 287 287 287 287 288 288 290 290 290 289 289 284 280 281 279 279 279 278 278 277 277 276 276 275 274 274 273 272 271 270 269 269 268 267 266 266 265 263 262 262 261 262 261 261 260 260 261 261 261 260 260 259 259 258 259 259 259 259 260 261 262 263 264 264 264 264
280 281 280 279 280 275 274 276 272 274 285 287 288 282 283 283 281 281 281 284 285 286 287 286 287 289 289 289 290 290 285 280 277 278 279 280 280 280 278 278 277 277 276 275 275 274 272 271 270 269 269 268 267 266 265 264 263 262 261 261 261 260 260 260 259 260 260 259 259 259 259 258 258 258 258 258 259 259 260 261 262 262 264 264 264 264
285 282 282 279 284 277 279 278 278 285 283 286 286 285 281 283 280 281 280 285 290 288 286 286 287 288 288 288 289 279 275 275 276 277 278 278 279 279 280 279 278 277 277 276 275 273 272 270 269 269 267 266 265 264 263 262 262 261 260 260 260 259 259 259 258 259 259 258 258 258 258 258 257 257 257 258 258 259 260 261 262 263 263 263 263 263
285 283 283 282 280 284 279 278 278 278 275 281 287 282 285 287 287 286 285 283 289 287 288 287 286 286 286 287 281 275 276 277 278 280 280 277 277 278 277 277 277 276 276 274 271 270 269 268 268 267 265 264 263 263 262 261 260 260 259 259 259 259 258 258 258 258 258 258 258 257 257 257 256 256 257 257 258 259 261 262 262 262 263 262 262 262
284 286 286 283 281 283 279 276 276 275 279 287 283 281 280 280 284 282 279 278 287 288 286 287 286 286 286 284 275 277 276 274 278 282 279 276 277 277 276 275 275 274 272 271 269 268 267 266 266 265 264 263 262 262 261 260 259 259 258 258 258 258 257 257 258 257 257 257 257 257 256 256 256 256 256 257 258 259 260 261 261 262 262 262 262 262
281 281 282 279 279 281 280 278 276 280 281 286 281 277 280 283 285 283 275 278 290 287 286 285 285 285 284 281 276 277 278 275 279 283 278 277 277 277 276 274 272 271 270 269 268 267 266 266 264 263 262 262 261 261 260 259 259 257 257 257 258 257 257 257 257 257 257 257 256 256 256 256 256 256 257 257 258 260 260 261 261 261 261 261 261 261
278 279 281 276 279 280 281 279 281 282 287 286 278 280 280 283 284 277 275 283 286 283 283 284 284 284 281 277 277 277 280 283 280 277 277 276 275 274 274 273 271 270 268 267 267 268 265 264 264 263 262 262 261 260 259 258 257 257 256 257 256 256 257 257 257 257 256 256 255 255 255 256 256 256 257 258 259 260 260 260 261 261 260 260 261 261
277 278 277 280 277 278 279 278 278 282 287 284 281 281 284 283 276 277 287 287 283 282 280 282 282 282 280 279 278 281 280 275 275 277 275 275 275 274 272 271 269 268 268 268 267 265 264 263 262 262 261 261 260 259 258 257 256 256 256 256 256 256 257 257 256 256 255 254 254 254 254 255 256 257 257 259 259 259 259 260 260 260 260 260 260 261
278 277 273 277 279 278 278 276 275 273 284 281 281 280 283 282 283 290 284 281 283 284 281 281 282 281 280 279 279 279 274 275 275 275 276 275 273 271 269 268 267 266 266 265 265 264 263 262 261 261 260 260 259 259 258 256 255 255 255 255 256 257 257 256 255 254 254 253 253 253 254 255 256 256 258 258 259 258 258 259 259 259 260 260 260 261
286 280 276 279 283 275 276 273 275 283 286 283 284 280 281 287 292 291 290 288 281 281 281 281 280 281 281 281 280 277 276 275 275 275 275 274 272 271 269 268 268 267 266 265 264 264 262 262 261 260 259 259 258 258 258 255 254 255 254 255 256 256 256 255 254 253 252 252 252 253 254 255 256 257 258 258 258 258 258 258 259 259 259 260 260 261
287 286 285 281 285 282 279 283 287 287 283 285 288 290 289 287 290 289 288 289 285 280 281 281 282 281 281 281 280 277 275 275 275 275 274 273 271 269 268 267 266 266 265 264 263 263 262 261 260 259 258 258 257 258 256 256 254 253 253 255 256 255 254 254 252 251 251 251 252 252 253 255 256 257 257 257 258 257 257 257 258 258 259 260 260 261
288 290 285 285 284 289 289 290 287 281 282 284 288 290 286 286 287 282 285 284 283 283 281 282 282 281 280 280 278 276 276 275 274 274 274 272 271 270 269 267 266 265 264 263 262 261 260 259 258 257 257 257 257 257 256 255 255 252 254 255 255 254 253 252 250 250 250 251 252 252 253 254 256 257 257 257 257 257 258 257 258 258 259 260 260 261
287 285 285 286 285 284 281 289 288 286 286 285 286 287 286 284 285 285 284 285 285 282 281 282 282 281 281 279 279 277 276 275 274 274 273 272 271 269 268 266 265 264 262 261 262 260 258 257 256 256 256 256 257 256 256 254 255 255 254 254 254 254 252 250 249 250 250 250 251 252 254 255 256 256 256 256 257 257 257 258 258 258 259 260 260 261
283 288 283 285 286 284 286 290 288 289 290 289 285 284 285 285 283 283 285 286 284 283 282 282 281 281 281 279 279 278 276 275 274 274 272 272 270 269 268 266 264 263 263 262 261 259 258 258 257 256 255 256 256 256 255 254 254 253 253 253 253 250 249 248 249 249 249 250 252 252 254 255 256 256 255 256 256 256 256 257 258 259 260 260 261 262
288 287 282 285 284 286 288 289 286 282 285 287 287 286 287 287 287 284 283 283 282 281 281 281 281 281 280 280 279 277 275 275 275 274 272 271 270 268 267 265 264 263 262 261 259 258 258 257 256 255 256 256 256 255 254 253 253 252 253 253 251 250 247 248 249 249 249 251 252 252 255 255 254 254 254 255 255 256 257 257 258 260 261 263 264 265
285 284 286 284 282 282 284 286 289 282 283 288 288 287 287 288 287 286 283 281 281 281 281 280 280 280 281 280 279 278 275 275 276 274 272 271 269 268 266 265 263 262 261 260 259 258 257 256 256 255 255 255 255 254 253 252 253 252 253 251 251 249 247 247 248 248 249 250 251 252 254 254 254 254 254 254 255 255 256 260 264 263 262 262 267 270
289 288 287 283 284 284 288 290 292 290 290 291 292 290 289 288 287 285 283 282 282 283 282 281 279 278 279 279 280 278 277 276 275 274 272 271 270 268 266 264 262 261 260 259 257 256 256 255 255 254 254 255 254 253 252 252 252 251 252 252 251 250 248 247 247 248 249 250 250 253 254 253 253 254 254 254 255 255 255 255 257 263 266 267 267 268
Wind_Speed
1 2 4 5 7 7 5 6 4 4 4 1 1 1 7 5 10 5 4 4 1 2 11 12 10 11 15 12 10 14 11 10 8 11 12 12 13 13 12 12 12 12 13 8 9 8 7 6 5 3 2 1 1 0 0 0 1 1 1 1 3 3 3 4 6 6 7 8 7 5 7 9 9 9 7 7 6 6 6 8 8 9 8 9 9 9
2 1 6 8 8 6 6 5 3 4 2 2 2 3 8 3 9 8 3 1 2 3 5 2 4 9 14 14 8 7 10 16 16 16 15 15 16 14 15 14 13 11 4 6 6 6 5 4 3 2 2 1 2 1 2 1 1 1 1 1 2 3 3 4 5 5 4 3 3 4 5 5 6 7 6 5 6 6 5 6 8 8 8 8 9 10
1 5 8 5 4 2 3 4 2 3 2 1 3 2 4 8 6 11 3 3 1 2 11 10 10 11 13 16 8 12 17 17 20 22 22 21 19 16 14 14 12 9 10 8 10 8 7 6 4 4 3 3 3 3 3 2 1 1 1 1 2 3 4 4 3 4 4 2 3 4 5 6 7 4 5 6 6 5 5 6 7 7 8 9 10 10
4 5 10 1 6 5 1 2 2 1 1 3 1 1 8 3 3 8 3 3 1 2 7 7 12 10 10 18 18 12 15 15 16 18 16 14 18 19 19 18 17 15 13 13 13 11 8 6 6 4 4 4 4 4 2 1 0 1 2 3 3 4 3 3 3 3 3 3 4 3 4 6 5 7 7 5 6 5 7 8 7 6 7 10 10 10
9 3 1 5 3 6 4 0 2 1 7 2 5 4 6 6 6 8 5 4 5 5 1 10 12 8 11 17 13 2 9 10 12 10 12 11 11 9 7 10 12 16 14 13 12 10 8 7 6 7 6 4 4 4 3 1 0 0 2 2 2 3 3 3 3 4 4 4 4 5 5 4 7 5 6 7 7 6 6 8 8 10 9 9 9 9
10 4 3 4 1 1 3 2 4 5 4 5 7 11 9 6 7 5 4 5 5 4 3 5 11 3 4 8 15 4 0 9 8 10 16 17 12 9 14 17 12 11 11 14 14 13 11 9 7 5 4 5 4 4 3 2 1 0 2 2 2 3 3 3 4 4 4 4 6 7 8 10 9 9 9 10 13 14 13 11 9 8 7 9 9 9
4 1 2 4 5 2 2 4 4 6 5 1 6 4 6 5 2 3 4 4 5 2 1 3 2 14 2 3 10 4 5 13 5 11 17 14 14 14 17 15 15 15 12 7 8 9 9 7 7 6 6 6 5 4 3 2 0 0 1 2 1 2 3 3 3 4 3 4 4 5 6 6 8 10 9 6 8 9 11 11 12 11 8 8 9 10
2 1 5 3 4 4 3 5 5 10 6 5 1 3 4 3 1 1 0 2 6 0 6 3 5 10 16 8 15 8 9 13 10 14 15 14 15 18 18 15 15 15 13 11 11 10 10 10 9 9 8 6 7 4 3 1 0 0 2 3 3 2 3 3 3 4 3 4 4 5 6 6 8 9 12 12 10 9 9 11 12 11 11 11 9 10
4 3 2 3 1 3 7 6 5 8 7 4 2 2 2 1 0 1 0 3 1 5 11 2 4 3 9 5 3 2 6 12 18 17 16 16 17 18 18 15 15 15 13 11 11 11 11 10 9 7 7 6 4 3 4 3 1 1 2 3 3 3 3 4 4 3 4 3 4 5 6 7 6 8 9 10 10 11 10 12 10 11 10 10 9 9
1 2 6 7 6 8 5 2 6 11 5 2 4 5 5 4 4 2 0 1 4 2 14 10 8 5 18 7 3 2 2 12 15 17 18 18 20 19 15 13 14 11 9 9 11 11 11 10 9 8 5 4 4 4 4 2 1 1 1 4 4 4 3 5 4 3 4 4 4 5 5 8 10 8 9 9 11 10 11 12 14 10 10 10 10 10
1 3 5 4 6 4 4 2 2 0 1 3 4 1 4 6 4 3 6 3 4 4 14 10 12 9 12 4 9 6 9 11 11 8 8 8 10 11 11 14 15 14 12 10 9 9 10 8 8 6 6 4 1 1 2 1 1 1 2 4 5 5 5 4 4 4 5 4 4 5 6 7 10 11 10 11 11 10 10 12 13 12 12 11 11 9
2 1 1 2 4 3 4 4 3 1 1 2 1 2 5 3 6 3 4 4 1 9 6 4 10 10 10 6 6 9 5 5 9 11 11 11 14 14 13 15 16 14 12 10 10 10 8 5 5 4 5 4 3 0 1 2 2 2 3 3 5 6 5 4 4 5 5 5 4 4 5 7 8 9 9 11 13 12 13 11 13 11 11 12 12 11
4 8 2 4 4 9 3 5 1 2 2 4 4 5 2 5 7 6 3 3 6 9 1 2 4 6 17 19 5 7 13 12 10 11 12 10 11 12 13 15 14 12 10 12 11 10 8 9 8 6 5 3 2 4 4 4 3 3 3 4 5 7 5 5 5 5 5 4 4 5 6 7 7 9 9 11 12 12 10 11 12 13 13 12 12 12
8 1 0 4 1 4 7 7 2 0 2 6 5 4 4 1 1 6 5 3 6 5 2 4 2 10 10 9 16 21 22 19 10 11 10 5 8 12 15 14 12 12 13 13 11 10 10 9 8 7 6 5 4 4 4 4 3 3 3 4 5 8 5 5 5 5 4 4 5 4 6 7 7 8 9 9 11 12 11 10 11 11 11 13 13 13
5 7 7 8 5 3 9 8 9 5 8 9 2 7 8 7 3 5 2 6 9 9 1 4 2 9 0 5 5 15 13 5 4 6 5 5 6 9 10 10 10 11 10 11 11 11 10 10 9 8 6 5 4 5 4 4 4 3 3 4 6 7 6 5 5 4 4 5 5 5 6 7 6 8 9 9 9 10 11 11 12 13 11 11 14 11
9 8 4 1 1 2 10 0 5 6 5 2 3 5 4 8 6 7 5 3 6 10 10 4 8 4 9 2 3 4 4 4 3 6 3 6 5 6 8 12 13 13 12 11 11 10 9 9 7 6 5 5 5 5 4 4 3 3 4 5 6 7 6 5 4 4 4 5 5 5 7 8 8 8 9 9 9 10 11 13 14 14 14 13 11 14
1 6 1 3 1 1 1 1 1 3 6 3 5 6 7 1 5 2 3 0 1 2 18 2 11 9 7 14 12 8 1 9 5 4 3 6 6 8 12 12 13 13 13 12 12 10 9 6 6 7 6 5 5 4 5 5 4 4 4 4 6 7 5 4 4 4 4 5 5 7 7 7 8 9 10 11 13 13 11 13 12 11 15 13 15 13
4 8 1 3 5 0 1 0 1 4 2 8 2 7 2 2 4 5 5 3 1 6 11 2 13 19 5 18 6 2 6 9 10 9 4 5 6 11 12 12 14 15 14 10 8 8 9 9 9 7 6 6 7 6 4 4 4 3 4 5 6 5 6 6 5 5 5 6 7 7 7 7 8 9 11 10 12 11 12 12 10 12 11 13 14 12
4 8 2 2 0 3 2 1 2 1 3 3 3 1 3 3 1 1 4 5 2 5 7 9 3 19 11 18 3 4 7 11 14 8 5 8 10 14 11 11 10 8 8 11 12 10 9 8 8 8 8 6 6 5 4 4 3 3 4 5 5 5 5 5 5 5 5 5 6 6 8 8 9 9 9 10 10 12 12 13 13 14 13 15 13 13
1 4 5 1 1 1 1 4 8 4 1 1 0 1 0 1 3 5 8 4 5 9 4 13 10 19 6 6 5 10 12 12 11 6 12 14 17 14 11 12 14 14 14 12 11 10 9 9 9 9 7 6 6 5 4 4 3 4 5 4 3 3 4 5 6 5 6 6 6 8 9 9 9 9 10 10 11 12 12 12 14 14 16 14 12 13
3 3 7 0 3 2 3 6 10 12 9 3 2 3 1 2 2 4 2 4 5 5 7 5 13 19 16 10 10 11 11 12 13 14 12 14 15 13 12 14 14 14 13 12 11 10 9 9 7 6 5 5 4 2 2 3 4 4 4 3 3 6 7 6 6 6 6 7 8 8 10 10 10 11 10 11 10 13 12 13 13 12 14 13 15 14
2 3 10 3 1 7 8 2 7 11 15 13 14 12 14 8 4 3 13 2 4 8 8 4 16 17 19 6 6 8 10 9 12 12 12 15 14 12 12 12 13 13 12 11 10 9 9 7 6 5 4 3 3 3 3 3 3 4 3 3 4 5 5 6 7 6 8 7 8 10 10 11 10 10 10 11 13 12 12 12 12 14 16 15 15 16
5 3 2 7 10 12 4 1 2 2 2 2 5 8 10 9 5 5 11 8 0 9 2 2 4 28 4 7 6 6 6 9 9 11 12 12 12 13 13 12 11 11 11 12 10 9 9 8 7 7 8 6 5 4 3 4 4 3 3 3 4 5 7 5 7 7 7 8 9 10 10 11 10 11 11 14 12 13 12 12 13 13 15 18 17 14
4 2 2 9 2 3 1 2 2 4 1 4 6 2 5 12 16 15 11 3 5 1 4 1 6 26 1 0 3 1 4 2 1 11 13 10 10 11 11 12 13 11 10 9 8 8 8 7 5 6 6 5 4 3 5 5 2 1 2 3 4 6 7 7 6 7 8 9 10 10 11 11 11 12 12 12 10 14 13 13 11 14 17 16 17 17
3 5 6 6 5 3 2 3 1 2 2 6 7 9 14 10 6 3 4 0 2 12 6 7 20 25 0 1 2 1 1 4 5 8 9 9 8 9 11 11 10 9 8 10 10 10 7 6 7 8 6 5 4 4 4 2 1 2 3 3 4 5 5 7 7 7 8 9 11 11 10 12 11 11 13 13 13 13 14 14 15 14 16 16 16 18
6 5 9 9 14 12 12 6 7 8 13 6 3 4 9 15 16 4 8 7 12 8 14 12 22 23 21 4 1 3 4 6 5 6 5 7 7 11 11 11 11 12 13 13 10 9 10 9 8 6 5 4 5 4 2 1 1 3 3 4 3 5 6 7 7 7 8 9 10 11 12 12 12 14 15 16 15 15 14 14 16 17 14 14 18 20
4 3 9 15 14 17 18 9 3 6 5 7 9 15 17 15 17 14 6 5 18 10 11 23 26 25 29 24 9 9 7 12 8 8 10 10 9 9 8 11 13 15 15 16 14 9 7 7 8 8 6 5 4 2 1 1 2 3 3 4 4 5 6 6 6 7 8 10 10 10 11 12 12 12 14 14 14 13 14 18 16 15 18 18 19 17
2 5 14 16 18 21 19 16 5 8 7 9 8 12 14 14 15 16 15 22 10 7 20 20 27 21 30 30 22 19 15 9 8 10 11 9 10 13 16 15 12 9 8 8 9 11 11 10 8 7 6 4 3 1 1 2 3 3 3 5 5 5 5 6 7 8 9 9 9 9 11 11 12 13 13 13 13 15 17 15 16 17 17 15 14 19
5 12 17 10 17 20 18 18 8 4 8 11 13 16 12 15 12 19 24 31 14 14 23 29 24 21 28 24 21 21 20 11 14 16 15 17 14 9 7 10 13 15 14 13 11 10 10 10 8 7 5 4 2 2 3 2 3 2 3 5 5 5 5 6 7 9 8 9 9 10 10 12 12 12 12 13 14 17 16 17 17 18 16 17 19 15
2 11 14 6 13 15 19 17 10 11 12 12 19 25 15 14 21 24 27 22 21 24 27 27 26 31 32 27 25 28 20 11 11 9 8 7 10 12 13 15 15 16 15 14 12 11 10 9 7 6 6 4 4 3 3 3 2 2 4 6 5 5 6 6 7 8 8 9 10 11 12 13 13 13 13 14 16 16 17 17 16 14 16 18 17 19
7 12 11 3 8 16 19 9 3 9 9 17 24 31 19 14 18 23 19 19 22 23 27 28 30 32 29 27 25 25 15 6 4 7 13 13 11 14 16 16 15 16 14 12 11 11 9 8 7 6 6 5 5 5 4 3 2 3 6 5 5 5 5 6 7 8 8 10 10 11 12 12 12 13 15 15 15 15 16 17 15 16 17 16 14 15
7 6 4 3 9 15 12 5 6 4 4 14 27 34 23 18 20 19 18 21 17 24 25 24 22 23 27 29 23 13 11 11 15 14 10 10 13 14 15 16 16 15 15 14 12 10 10 9 9 8 7 6 5 4 4 2 2 5 5 4 4 5 6 6 7 8 9 10 11 11 12 12 13 13 14 14 15 15 15 15 16 16 16 16 17 15
9 5 7 5 9 15 6 9 6 4 2 12 28 31 24 21 20 18 20 20 22 24 20 20 24 24 26 22 17 16 8 11 12 13 12 10 12 16 17 17 18 17 16 15 13 12 11 11 9 8 6 6 5 5 5 3 4 4 3 4 5 5 5 6 6 8 9 9 10 12 11 12 13 14 14 15 16 15 15 15 17 17 17 18 17 13
6 10 9 6 8 8 2 5 5 1 7 24 10 3 13 17 19 22 26 26 25 19 20 23 24 23 22 19 17 20 15 13 13 11 12 15 13 13 13 15 16 16 14 12 12 13 11 8 8 7 8 6 6 5 4 3 3 2 2 3 3 4 5 6 7 7 9 10 10 10 12 12 13 14 15 15 16 16 15 16 17 17 16 16 17 16
12 10 10 5 4 8 5 3 0 14 21 20 6 5 7 12 15 24 23 23 24 22 22 24 25 25 28 22 19 19 16 7 6 9 8 10 13 16 19 18 15 15 16 15 12 11 11 12 10 8 7 7 7 5 4 3 2 2 2 2 3 4 5 6 7 8 9 10 11 11 11 12 13 14 15 16 16 16 16 16 16 17 17 16 17 17
10 12 5 2 4 5 4 9 11 22 13 11 13 5 2 3 2 1 10 19 24 18 18 21 25 27 24 23 21 16 9 5 3 5 8 12 16 16 15 16 17 16 16 15 15 13 14 11 11 10 8 7 6 5 3 3 1 1 2 3 3 4 4 6 7 8 9 10 10 11 10 12 14 15 15 16 16 16 16 16 16 18 17 16 16 15
13 6 7 10 9 13 13 14 21 14 19 25 28 13 8 11 6 10 15 23 28 12 19 22 23 22 21 20 19 2 3 2 4 9 7 12 11 11 15 17 19 18 15 12 13 13 12 9 8 8 7 7 5 5 3 2 0 1 1 2 2 4 5 5 6 8 9 10 11 11 11 12 14 15 16 15 17 17 17 17 19 17 15 17 16 16
10 16 10 12 9 13 14 13 12 11 16 24 21 2 7 9 11 10 10 18 26 7 15 16 17 21 19 17 4 4 4 1 12 14 11 9 7 8 4 6 8 10 11 12 11 12 11 8 8 7 7 8 6 4 3 2 1 1 1 2 4 5 6 5 6 8 8 10 11 12 12 12 13 15 16 15 16 18 16 16 15 15 15 16 18 18
10 10 10 15 12 8 11 14 16 14 20 17 5 6 2 3 12 4 4 16 21 12 13 15 17 19 17 11 6 8 5 5 14 13 4 11 9 10 12 11 12 12 13 15 18 16 11 9 9 8 8 7 6 4 3 2 2 1 2 3 4 5 4 5 8 9 9 10 10 11 12 12 12 13 15 16 16 15 17 17 16 14 15 15 15 15
12 11 10 10 13 14 16 14 15 9 13 16 2 5 7 9 10 7 7 15 22 4 14 15 18 16 13 6 11 10 11 9 14 11 8 14 12 11 16 16 14 14 13 13 12 13 12 11 10 8 7 7 6 5 4 2 3 2 3 3 3 3 4 6 8 8 9 9 10 10 11 11 12 13 13 16 16 15 14 14 14 15 14 15 13 14
7 8 11 20 19 20 19 16 8 9 11 12 13 7 10 5 6 3 17 24 4 6 5 10 13 13 7 10 12 10 15 11 3 6 12 12 12 9 7 10 14 16 17 16 14 12 10 9 7 8 8 6 6 5 4 2 2 3 3 2 3 4 6 6 7 8 9 9 10 11 12 11 11 14 15 13 13 14 14 13 14 15 15 15 13 13
7 6 5 9 14 17 17 17 15 11 12 4 11 18 11 9 7 19 19 2 4 5 6 9 11 8 10 15 13 13 7 3 7 10 14 15 15 14 14 15 13 11 10 11 13 11 10 9 8 9 7 6 5 5 3 3 4 3 2 3 4 4 6 7 7 8 8 10 10 11 11 12 12 12 12 13 13 14 14 13 13 13 14 12 13 16
14 11 11 14 10 3 5 10 7 9 10 20 14 5 7 11 19 19 1 0 3 8 10 8 10 9 11 12 12 7 7 6 10 13 14 14 15 17 16 17 20 19 16 15 12 9 11 10 9 8 8 6 5 5 4 4 5 3 2 4 4 5 6 6 7 8 9 9 10 10 11 12 13 13 11 12 13 14 15 13 14 15 13 13 14 15
11 9 4 10 9 10 12 11 13 20 7 23 23 17 16 25 20 13 10 11 6 6 8 9 8 10 12 12 12 9 7 9 6 11 12 11 12 12 12 14 14 13 11 10 11 12 9 9 8 8 7 6 4 4 4 5 5 3 3 2 4 5 5 5 6 7 8 8 9 10 10 11 12 11 10 12 13 13 13 14 14 13 12 13 13 13
16 20 17 16 12 11 13 17 20 8 12 20 20 23 21 23 21 10 9 10 8 7 5 7 11 9 11 11 11 12 9 10 13 14 17 15 14 16 16 17 19 17 16 16 12 10 8 10 10 8 7 6 5 5 4 3 6 4 4 3 3 4 5 7 7 8 8 9 9 9 9 9 10 11 11 11 12 14 14 15 14 14 13 13 13 13
6 18 3 1 9 16 12 12 4 5 12 18 22 18 5 8 12 2 6 6 7 8 11 11 9 10 10 8 11 6 10 11 14 12 11 14 14 11 11 12 10 10 12 11 8 8 7 7 8 9 9 6 5 5 3 3 4 5 2 3 2 3 5 5 7 7 8 9 8 9 10 10 9 9 10 11 9 11 12 12 13 13 14 13 14 14
9 4 6 12 2 6 14 21 23 17 16 17 19 14 8 5 8 10 8 11 9 8 9 7 10 12 14 13 15 15 12 13 14 13 12 13 14 15 16 15 12 14 17 13 8 9 9 9 9 10 10 7 4 4 3 3 3 4 2 2 3 4 4 4 5 7 7 8 9 8 8 9 9 10 11 11 9 8 10 12 11 12 12 14 12 12
8 12 7 12 14 16 21 22 10 12 20 17 14 12 16 17 9 9 13 11 8 9 11 12 8 8 10 12 13 13 13 13 15 14 14 14 14 13 13 14 14 11 7 7 9 9 8 9 12 11 9 8 5 4 3 3 3 2 1 2 3 3 3 4 4 5 7 9 8 8 8 8 11 11 9 10 12 11 10 10 12 12 13 11 11 11
6 14 11 14 16 16 18 20 14 4 5 14 15 15 17 18 18 16 12 10 8 10 9 6 9 12 13 14 13 12 13 14 15 18 17 13 12 11 10 12 9 10 11 11 8 10 9 10 12 11 10 7 5 4 3 2 2 2 2 3 2 3 4 4 5 6 6 6 6 7 7 7 7 8 8 9 9 10 9 10 12 13 12 14 12 15
8 16 7 7 11 14 19 24 21 12 15 22 19 23 24 21 17 16 10 8 10 12 12 12 8 6 12 13 14 15 18 15 14 15 17 16 16 14 13 13 16 15 10 6 6 7 8 7 12 12 9 6 5 4 3 2 2 2 3 2 1 2 3 4 5 5 6 6 6 6 7 7 8 8 8 8 9 10 12 13 17 13 12 13 23 30
20 22 15 16 17 21 23 28 21 18 19 21 16 15 21 17 15 15 17 19 17 17 16 15 12 9 9 9 11 16 16 17 16 14 15 13 13 16 19 21 18 12 11 11 10 9 10 8 9 11 8 6 5 4 3 2 2 2 2 1 2 2 2 3 3 4 5 5 6 7 7 7 7 8 8 8 8 9 10 13 14 16 19 22 25 26
Wind_Direction
92 130 214 229 229 231 242 192 183 193 168 139 136 180 247 230 281 265 228 264 329 291 247 249 243 258 268 256 212 201 188 213 213 210 208 206 205 206 207 207 207 206 203 200 198 196 201 203 189 157 119 99 40 229 251 231 256 243 241 320 338 318 334 5 2 5 3 3 354 348 348 345 340 331 330 321 320 319 318 323 326 323 321 319 319 316
66 22 267 226 220 210 225 185 108 80 113 189 229 239 277 192 257 273 289 324 301 170 289 222 237 255 261 265 235 185 179 210 207 212 214 209 209 208 205 205 209 208 212 199 205 219 226 232 200 140 130 128 122 231 224 218 244 250 336 20 330 335 0 10 12 1 360 11 348 326 324 325 315 314 308 307 307 309 311 314 315 315 314 315 314 312
35 210 250 227 214 110 89 120 127 179 175 109 205 232 306 266 241 279 295 339 308 137 261 275 262 256 263 267 239 177 196 212 208 205 206 201 205 208 204 207 205 201 206 196 200 203 209 211 191 157 171 193 196 204 208 218 265 327 3 4 2 359 5 360 347 0 342 327 333 341 316 323 310 266 266 288 290 290 303 313 311 313 315 320 318 316
307 281 249 246 128 123 64 77 126 79 99 161 127 268 250 225 23 306 290 4 336 168 291 286 281 271 269 267 254 203 202 219 216 215 219 209 207 204 202 198 198 200 196 198 193 200 203 201 186 175 188 201 201 218 210 242 285 313 3 2 10 356 343 330 330 341 320 321 324 311 296 297 278 295 294 274 267 283 308 316 316 308 316 315 309 306
214 195 111 110 143 152 177 325 143 248 275 255 186 210 258 272 238 194 267 324 290 297 261 310 287 261 224 253 272 224 220 226 227 220 229 228 225 216 221 222 210 199 195 194 194 198 196 198 198 185 188 186 205 199 201 208 219 352 344 345 2 330 326 320 332 326 316 326 328 320 309 291 300 291 301 315 314 316 315 311 322 321 317 307 301 300
284 270 135 104 91 94 136 237 224 152 264 312 223 200 226 234 264 273 324 359 359 319 341 49 326 293 281 240 262 262 278 233 227 210 222 220 210 197 209 214 207 214 206 193 192 190 190 189 186 188 201 209 206 206 208 196 202 84 329 343 336 321 323 333 320 315 331 342 337 335 337 336 334 324 332 332 326 324 326 321 309 300 300 304 302 303
219 9 135 173 150 138 162 198 241 154 198 32 272 189 221 234 228 285 319 32 303 246 276 62 222 285 174 283 256 234 222 242 224 221 230 218 211 208 216 208 202 204 205 210 195 187 181 193 175 195 202 206 200 215 205 206 193 300 285 299 318 309 314 317 306 311 331 336 330 324 318 311 311 313 306 305 303 305 309 313 311 308 304 300 304 307
107 16 63 61 109 142 168 247 241 160 129 231 249 122 106 117 189 216 133 179 250 288 272 198 183 271 284 230 258 250 236 251 244 236 233 223 214 215 216 206 203 203 200 192 195 187 186 182 183 190 204 192 202 197 175 186 229 217 278 297 308 312 310 300 290 306 325 322 316 315 311 309 314 314 308 314 311 305 303 304 304 306 306 305 304 301
140 169 170 148 145 154 208 210 185 160 151 220 214 112 92 91 161 145 242 275 261 12 293 166 155 258 252 271 355 41 238 258 255 243 233 224 221 220 216 205 206 204 197 187 186 187 187 187 193 191 189 213 200 189 177 192 207 224 279 304 315 314 302 288 287 309 316 306 301 299 302 307 303 304 304 308 306 306 305 299 299 299 298 299 297 294
306 172 211 165 153 225 221 257 173 164 208 272 144 95 79 66 62 49 342 14 327 47 278 259 171 218 275 183 173 348 238 259 252 245 235 221 216 216 209 205 206 203 196 196 189 185 189 189 192 195 184 174 202 198 181 186 151 279 316 311 306 305 290 279 291 306 304 293 297 298 304 306 307 309 304 305 304 304 309 305 305 303 301 302 299 297
259 305 153 137 206 204 134 71 160 286 129 120 80 59 4 41 35 25 62 89 42 259 248 243 180 174 283 176 178 175 219 211 240 265 254 233 225 219 208 201 202 199 195 193 193 191 190 191 185 169 179 200 225 214 164 184 245 280 294 283 292 282 285 281 291 295 284 284 284 295 302 303 303 307 307 309 304 303 305 304 303 304 303 300 297 297
344 22 188 259 79 106 105 84 30 77 114 115 62 88 1 348 4 36 344 43 154 266 252 248 188 188 217 268 248 227 247 216 212 240 238 221 214 206 199 203 202 196 192 188 188 192 186 173 184 165 190 211 226 141 187 226 258 263 265 269 279 286 277 275 276 271 274 279 291 291 294 296 298 303 306 305 302 304 302 301 300 301 300 298 298 296
274 221 227 326 199 134 114 82 341 11 15 85 77 36 65 276 15 313 39 300 195 230 201 74 150 307 232 244 258 267 248 251 229 231 237 221 215 202 203 204 199 192 185 187 188 181 181 179 180 190 209 208 230 212 206 217 227 244 256 260 266 277 272 271 268 267 273 292 301 301 294 292 295 299 298 298 297 298 298 300 300 303 302 302 301 302
277 309 29 241 55 215 140 148 211 26 216 122 155 144 89 351 40 267 261 238 297 270 254 100 95 250 281 277 220 241 251 245 241 237 251 236 213 199 200 199 192 189 191 189 182 182 181 183 187 188 190 200 209 211 207 216 226 237 251 261 259 268 274 268 268 269 280 285 289 284 281 288 294 294 295 293 293 295 295 294 293 295 296 299 296 298
285 323 257 148 236 168 182 194 179 163 156 198 118 145 180 149 162 260 228 255 271 278 196 254 68 238 79 237 223 213 245 326 270 270 257 225 207 205 203 194 187 187 194 185 184 185 182 187 184 185 190 197 203 204 206 213 225 233 248 256 263 273 274 272 274 284 292 298 292 287 282 286 292 292 292 289 289 293 295 295 292 291 291 289 294 292
216 239 257 291 235 160 178 285 118 105 59 144 165 83 87 222 122 216 209 229 318 334 308 158 214 197 223 98 301 228 304 286 302 276 241 223 195 177 177 185 190 192 190 187 185 184 189 184 183 180 186 200 198 198 202 218 229 229 243 251 256 263 270 270 285 295 298 294 287 285 288 288 289 289 290 290 289 287 288 290 291 291 290 289 289 290
30 272 299 321 90 115 174 191 216 142 207 208 113 209 209 142 143 290 353 85 74 65 265 152 277 262 316 266 205 226 244 266 286 281 223 213 194 182 197 193 191 192 189 187 186 182 183 184 183 184 192 194 194 188 203 223 221 224 245 254 265 269 273 288 299 299 296 290 291 290 289 290 290 289 287 287 289 289 287 286 286 288 290 290 289 289
198 262 252 116 220 343 227 120 59 23 148 101 194 234 145 139 109 126 220 323 125 219 269 121 271 288 75 294 59 21 256 257 251 246 219 215 195 198 207 196 190 192 192 182 176 180 182 181 184 192 195 191 187 190 209 235 234 227 232 245 261 277 304 310 313 310 307 303 297 293 290 285 281 285 286 287 290 291 291 288 285 285 288 290 288 285
116 293 248 332 119 315 3 143 356 347 33 142 186 252 135 233 220 302 88 271 217 245 272 268 264 268 221 261 296 239 212 244 242 223 194 210 211 214 207 201 193 182 175 181 185 186 182 180 187 189 194 195 189 190 206 234 247 243 249 248 250 282 294 293 299 300 298 292 294 293 291 288 286 280 279 281 282 287 284 288 290 290 288 289 288 289
25 206 301 318 103 290 5 112 204 194 346 95 45 35 176 109 186 132 199 201 118 263 313 282 333 280 253 193 198 251 205 225 235 189 210 208 210 208 200 194 188 188 191 185 185 184 181 185 188 187 185 183 193 204 216 231 244 250 250 256 288 296 293 303 305 303 300 297 291 292 291 288 284 286 286 286 290 290 286 288 291 292 293 289 289 286
175 112 257 344 312 94 199 188 209 164 183 186 207 263 349 207 217 115 290 163 180 238 227 307 297 284 279 179 199 224 203 213 214 210 203 215 218 208 202 191 192 193 189 188 181 180 182 186 189 190 180 180 183 187 221 237 246 253 254 295 324 313 311 311 304 304 302 301 295 292 292 291 293 292 289 289 285 287 289 290 291 289 287 288 287 292
118 164 224 112 255 222 245 227 211 188 182 178 187 208 193 166 213 209 258 115 215 236 241 178 260 276 276 142 170 207 210 206 223 198 200 217 213 202 201 200 192 191 195 180 177 175 180 185 186 176 163 160 171 223 236 248 246 257 290 331 318 301 298 302 306 307 304 299 293 293 295 297 297 292 291 292 295 290 291 291 291 296 297 293 297 294
165 136 135 216 206 221 212 270 335 295 346 241 173 228 178 201 153 164 250 235 136 246 248 122 37 267 248 166 182 197 203 210 209 187 204 212 210 201 203 200 195 196 185 179 173 179 179 181 179 174 172 184 195 215 231 242 245 280 327 322 299 297 295 298 300 303 296 293 295 298 301 301 300 301 301 302 298 297 297 296 297 299 300 299 297 296
95 151 247 267 338 349 350 331 8 42 12 306 257 188 139 205 200 211 223 163 187 143 173 194 220 260 128 42 144 218 283 275 208 193 202 210 206 201 194 192 190 185 187 179 176 178 180 169 162 160 170 190 209 217 228 231 254 312 306 292 289 289 297 302 302 298 297 297 299 301 301 302 303 305 305 300 299 301 302 297 299 301 300 300 300 299
127 247 163 269 326 334 348 355 326 333 55 223 227 203 210 226 225 217 76 141 275 222 170 152 251 265 238 337 49 320 308 252 194 222 209 205 206 199 194 197 192 185 176 180 183 179 166 159 167 181 181 193 206 215 218 230 294 295 283 281 282 286 295 299 295 297 298 301 304 306 307 309 313 312 310 307 305 301 300 304 307 306 305 304 302 302
187 177 150 215 230 248 254 212 225 220 221 224 241 226 214 210 216 166 246 216 236 227 161 219 250 259 267 131 294 245 262 267 235 239 239 222 208 197 193 194 190 184 190 184 177 171 177 178 178 177 185 193 206 209 205 250 276 282 273 273 280 288 297 291 290 296 305 307 310 313 313 313 311 308 306 307 304 304 305 306 310 306 301 296 301 302
188 187 198 212 210 228 242 249 183 108 85 181 224 203 216 212 215 214 232 231 231 224 195 232 243 265 274 265 254 258 232 236 226 225 219 218 214 208 202 195 192 191 187 184 179 172 165 171 183 188 186 194 199 191 172 219 265 268 274 283 286 284 282 288 296 304 310 314 309 300 303 302 301 305 310 307 301 302 309 310 306 305 302 305 299 301
89 214 224 222 226 236 244 252 196 158 206 222 208 226 214 202 202 201 201 232 215 70 252 244 249 253 263 270 273 270 256 236 233 228 222 220 216 197 198 197 188 182 183 172 172 174 179 183 183 184 186 187 188 169 200 223 242 257 274 287 286 282 286 298 309 308 309 308 309 306 304 304 307 303 301 303 302 307 309 306 303 303 304 296 296 300
173 225 237 215 239 247 249 252 230 192 235 255 247 242 200 196 202 205 217 230 204 216 243 255 257 259 261 263 271 270 268 252 226 225 213 211 207 196 183 185 185 188 186 181 181 176 177 183 183 180 179 180 165 195 223 236 247 258 276 270 271 280 295 312 312 314 317 314 306 305 303 304 308 302 299 303 307 311 309 307 304 300 297 298 296 297
150 244 247 203 247 247 252 250 248 250 260 266 262 258 235 173 213 213 225 227 225 235 244 257 267 265 266 271 270 269 273 269 247 227 216 202 199 190 191 193 189 190 187 185 180 180 182 179 170 170 170 170 180 203 219 238 239 255 268 271 283 295 307 325 320 320 318 314 309 307 308 306 305 308 310 312 310 307 307 304 302 297 296 298 296 293
175 245 230 153 251 254 252 251 200 236 246 259 266 262 250 219 220 228 233 238 236 247 252 256 259 265 269 269 268 270 285 256 240 212 210 207 191 192 195 194 191 191 188 182 176 182 177 169 165 162 167 179 187 201 218 224 239 256 261 271 293 312 325 331 324 321 321 313 311 310 309 307 308 314 315 312 308 306 305 304 303 302 298 295 288 290
184 264 68 122 229 258 261 229 220 226 249 256 262 262 254 232 237 238 232 230 226 239 244 251 256 260 264 267 268 279 265 238 232 228 211 205 200 194 197 193 191 190 187 185 181 173 171 170 170 172 178 181 186 195 206 217 240 254 262 286 313 326 329 327 322 320 318 315 312 310 310 311 314 315 313 310 304 304 306 304 303 302 300 298 299 294
194 162 205 178 225 251 268 100 103 80 324 287 255 252 249 239 231 244 248 240 226 231 243 247 247 247 256 264 281 272 235 233 228 224 214 209 199 198 195 193 194 192 186 180 176 174 174 175 174 171 171 171 181 188 203 201 236 247 279 314 322 331 325 325 327 321 316 312 310 309 313 317 318 315 310 308 306 306 307 306 304 305 306 306 305 291
190 200 220 153 223 243 115 104 95 171 244 245 281 123 198 222 217 226 240 241 239 222 231 236 250 257 262 263 258 264 257 234 229 225 198 190 193 202 205 202 197 188 181 175 170 172 171 157 150 156 158 163 172 185 171 202 213 250 312 310 323 324 326 328 324 321 315 313 311 315 319 320 318 312 309 309 308 307 307 308 307 306 303 300 298 298
189 198 217 172 224 233 127 103 238 229 241 249 64 245 182 201 197 219 232 240 243 236 240 250 254 256 255 258 258 259 262 256 224 221 208 206 191 189 193 196 188 181 179 174 169 167 156 144 138 144 157 169 175 160 164 197 214 269 292 332 326 327 331 330 323 321 319 316 317 320 321 320 317 312 311 310 309 310 308 308 309 310 314 315 315 317
186 190 168 226 184 36 120 203 234 240 255 331 293 144 266 99 263 23 279 263 252 238 236 242 245 249 253 257 257 257 275 268 263 245 217 206 196 191 189 192 185 178 177 177 167 162 148 154 157 162 164 158 152 151 157 200 237 303 329 339 328 330 334 329 325 318 320 320 321 323 322 321 315 313 312 312 312 312 311 311 317 319 319 318 318 315
183 161 174 228 179 225 223 228 237 293 312 285 277 237 145 213 179 193 262 268 264 211 222 237 245 251 252 252 254 264 87 57 295 264 224 219 209 204 190 185 177 180 168 158 155 148 120 121 133 140 145 146 141 145 170 196 184 360 329 339 341 349 341 335 328 324 325 321 321 322 322 319 314 312 312 313 312 313 317 319 322 323 324 320 320 317
178 194 193 220 221 211 241 252 254 250 250 258 256 29 190 208 198 192 219 268 272 234 207 228 239 246 247 250 236 115 101 36 272 265 219 199 179 170 148 140 141 140 139 131 104 106 114 120 123 137 139 136 133 145 164 166 82 84 12 8 360 360 345 338 327 327 325 320 320 321 320 315 311 309 310 312 313 315 316 319 319 321 323 321 320 318
225 230 210 210 230 220 233 229 239 233 247 251 248 150 156 158 113 106 96 263 270 248 198 208 230 240 240 225 155 136 109 216 252 252 196 156 164 156 143 142 142 140 136 137 137 132 130 136 139 135 131 130 144 152 154 129 116 97 60 29 10 357 342 336 331 331 327 321 319 318 312 309 307 306 308 310 312 315 318 321 322 318 319 317 313 309
204 212 213 232 230 228 230 233 240 224 254 259 194 151 171 133 136 76 266 263 272 219 196 197 219 231 231 177 148 166 174 219 243 255 153 165 154 155 149 147 140 135 130 126 112 121 131 134 130 129 135 148 158 155 145 125 105 90 70 33 5 359 342 334 331 323 323 317 316 311 307 307 308 306 307 308 311 315 318 318 318 321 320 317 312 310
191 220 206 213 217 225 224 246 265 276 256 243 141 153 156 139 96 205 245 252 239 146 192 184 210 218 177 154 167 179 214 211 215 112 134 128 125 119 120 133 139 138 139 137 129 135 128 136 133 137 145 153 156 146 134 119 107 84 60 29 15 356 338 334 327 326 324 318 311 308 307 309 307 307 307 307 310 314 317 320 320 320 321 317 314 312
219 190 256 218 227 222 222 230 237 254 259 169 147 156 166 102 216 236 244 246 123 207 184 192 197 197 167 181 186 208 195 110 141 130 139 153 152 146 141 136 121 102 111 123 133 130 133 128 126 129 137 152 146 132 124 108 92 80 64 29 11 350 336 335 331 326 322 315 309 306 307 308 307 304 305 310 315 320 319 319 318 318 318 314 314 315
186 174 197 202 215 250 235 238 242 256 244 138 134 107 217 197 232 237 201 225 160 183 182 197 200 191 174 197 204 187 122 141 144 155 153 151 145 148 148 147 145 145 145 140 135 141 137 135 142 153 155 145 137 120 107 103 88 79 58 37 360 346 338 337 332 325 317 308 305 309 309 308 309 311 314 318 320 320 318 320 323 323 319 317 316 317
153 210 195 222 174 189 200 206 220 218 184 148 148 185 198 215 229 230 221 240 195 172 182 193 204 195 188 189 182 176 164 144 154 150 153 149 146 137 138 142 138 133 131 135 140 146 141 133 143 149 144 128 121 112 100 101 89 74 64 29 1 343 339 335 332 320 310 307 307 308 310 310 310 310 316 322 323 321 320 324 325 324 322 323 321 320
172 216 195 208 182 184 204 214 229 212 148 181 186 213 212 209 224 222 200 220 194 215 188 182 201 194 196 186 178 166 160 181 165 166 156 164 154 154 155 160 157 148 138 139 142 140 147 151 158 143 131 126 114 111 95 94 96 83 68 15 6 342 343 333 326 318 309 310 309 308 306 306 311 319 324 328 328 327 328 327 331 327 328 328 328 320
202 220 55 300 223 227 261 258 246 91 188 202 219 227 212 212 226 139 193 215 218 192 174 193 195 186 185 176 155 185 178 168 155 169 160 154 155 146 136 128 130 128 125 105 121 135 147 145 138 131 126 118 115 105 104 80 88 83 51 13 358 350 345 328 318 314 310 309 309 308 310 315 320 324 327 328 331 327 324 325 327 326 326 330 327 326
232 189 183 224 163 161 244 236 233 219 222 214 228 232 242 232 209 197 212 223 210 177 191 204 185 183 180 171 177 175 175 166 164 161 157 152 155 154 153 151 147 148 147 148 146 138 151 153 135 129 124 121 124 115 99 97 79 79 59 13 356 355 337 317 306 305 310 313 311 310 312 323 330 334 332 331 332 331 327 327 325 324 327 328 319 313
262 175 203 225 227 207 239 241 246 233 236 230 214 222 230 231 221 213 216 216 197 187 187 192 176 188 164 177 180 167 168 168 160 161 161 165 160 158 157 146 144 139 137 125 142 162 162 149 136 130 130 125 130 121 106 98 87 80 64 31 11 350 329 314 309 312 311 310 310 313 318 327 334 336 332 333 333 334 336 332 325 328 333 327 327 320
171 121 216 190 219 238 259 270 252 69 307 250 226 220 224 220 216 218 211 200 181 180 196 194 189 175 171 182 171 163 157 174 172 164 162 160 157 157 155 148 144 136 134 151 164 183 174 146 129 126 124 125 130 120 112 102 97 78 54 29 8 339 336 320 319 311 305 306 313 319 323 330 334 332 332 328 330 329 329 328 330 329 323 332 332 339
123 208 199 132 219 231 229 236 229 225 242 246 217 215 223 222 212 215 192 187 189 192 192 181 189 192 184 174 169 165 167 171 173 163 161 164 166 157 132 139 130 135 140 143 145 158 136 127 131 132 126 124 130 125 124 123 98 75 54 37 354 343 332 320 319 315 313 314 317 315 326 336 334 333 332 330 329 331 326 328 339 334 333 330 343 346
199 211 190 204 204 231 229 238 230 218 232 246 246 209 217 219 208 206 202 202 204 203 186 174 166 174 190 191 173 165 168 166 168 164 159 163 167 158 147 145 145 146 154 157 152 155 139 133 123 116 121 133 129 129 136 130 110 93 47 35 353 337 317 311 315 313 308 321 322 322 335 333 334 333 330 329 329 333 333 330 332 339 344 344 346 349